TimeCDT,TemperatureF,Dew PointF,Humidity,Sea Level PressureIn,VisibilityMPH,Wind Direction,Wind SpeedMPH,Gust SpeedMPH,PrecipitationIn,Events,Conditions,WindDirDegrees,DateUTC
12:53 AM,42.1,36.0,79,30.26,10.0,NW,3.5,-,N/A,,Overcast,320,2012-10-07 05:53:00
1:53 AM,41.0,37.0,86,30.27,10.0,Calm,Calm,-,N/A,,Overcast,0,2012-10-07 06:53:00
2:53 AM,41.0,36.0,82,30.27,10.0,NNW,4.6,-,N/A,,Overcast,340,2012-10-07 07:53:00
3:53 AM,41.0,35.1,79,30.28,10.0,NW,3.5,-,N/A,,Overcast,320,2012-10-07 08:53:00
4:53 AM,39.9,34.0,79,30.28,10.0,NNW,3.5,-,N/A,,Overcast,340,2012-10-07 09:53:00
5:53 AM,37.9,34.0,86,30.28,10.0,Calm,Calm,-,N/A,,Scattered Clouds,0,2012-10-07 10:53:00
6:53 AM,35.1,33.1,92,30.28,10.0,Calm,Calm,-,N/A,,Clear,0,2012-10-07 11:53:00
7:53 AM,35.1,33.1,92,30.29,9.0,Calm,Calm,-,N/A,,Clear,0,2012-10-07 12:53:00
8:53 AM,42.1,34.0,73,30.30,10.0,Variable,3.5,-,N/A,,Clear,0,2012-10-07 13:53:00
9:53 AM,46.0,32.0,58,30.30,10.0,Variable,3.5,-,N/A,,Clear,0,2012-10-07 14:53:00
10:53 AM,48.0,30.0,50,30.30,10.0,Variable,4.6,-,N/A,,Clear,0,2012-10-07 15:53:00
12:53 PM,52.0,30.9,45,30.26,10.0,Variable,3.5,-,N/A,,Clear,0,2012-10-07 17:53:00
1:53 PM,55.0,30.9,40,30.24,10.0,Variable,4.6,-,N/A,,Clear,0,2012-10-07 18:53:00
2:53 PM,53.1,32.0,45,30.21,10.0,Variable,3.5,-,N/A,,Clear,0,2012-10-07 19:53:00
3:53 PM,54.0,32.0,43,30.19,10.0,Variable,4.6,-,N/A,,Clear,0,2012-10-07 20:53:00
4:53 PM,52.0,32.0,47,30.18,10.0,NW,4.6,-,N/A,,Clear,320,2012-10-07 21:53:00
5:53 PM,51.1,33.1,50,30.19,10.0,Calm,Calm,-,N/A,,Clear,0,2012-10-07 22:53:00
6:53 PM,46.9,37.9,71,30.19,10.0,Calm,Calm,-,N/A,,Clear,0,2012-10-07 23:53:00
7:53 PM,46.9,35.1,63,30.20,10.0,Calm,Calm,-,N/A,,Clear,0,2012-10-08 00:53:00
8:53 PM,46.9,36.0,66,30.21,10.0,Calm,Calm,-,N/A,,Scattered Clouds,0,2012-10-08 01:53:00
9:53 PM,46.9,39.9,77,30.20,10.0,Calm,Calm,-,N/A,,Scattered Clouds,0,2012-10-08 02:53:00
10:53 PM,46.0,39.9,79,30.21,10.0,Calm,Calm,-,N/A,,Mostly Cloudy,0,2012-10-08 03:53:00
11:53 PM,46.0,41.0,83,30.19,10.0,South,4.6,-,N/A,,Overcast,180,2012-10-08 04:53:00